Location: Izdebno
(52.6670°N, 16.2170°E)
Time: 18:51:41
(UTC+02:00)

SR - Pass Details

Date: 29 February 2024
Orbit: 577 x 862 km, 66.7° (Epoch: 21 April)

Event Time Altitude Azimuth Distance (km) Brightness Sun altitude
Rises 21:09:51 0° 319° (NW) 3,291 ? -32.3°
Reaches altitude 10° 21:12:30 10° 326° (NNW) 2,313 ? -32.6°
Enters shadow 21:15:35 30° 350° (N) 1,316 ? -33.0°
Maximum altitude 21:17:30 42° 38° (NE) 1,028 - -33.2°
Drops below altitude 10° 21:22:06 10° 109° (ESE) 2,119 - -33.8°
Sets 21:24:25 0° 117° (ESE) 2,984 - -34.0°
